date,time,SUV Intensity [MED/Hr],UV Index,Daily total [MED],Since Last [MED]
14/07/2022,00:10:22,0.000,0.0,0.0,0.0
14/07/2022,00:11:22,0.000,0.0,0.0,0.0
14/07/2022,00:12:22,0.001,0.0,0.0,0.0
14/07/2022,00:13:22,0.000,0.0,0.0,0.0
14/07/2022,00:14:22,0.000,0.0,0.0,0.0
14/07/2022,00:15:22,-0.000,0.0,0.0,0.0
14/07/2022,00:16:22,0.000,0.0,0.0,0.0
14/07/2022,00:17:22,0.001,0.0,0.0,0.0
14/07/2022,00:18:22,-0.000,0.0,0.0,0.0
14/07/2022,00:19:31,-0.000,0.0,0.0,0.0
14/07/2022,00:20:22,0.000,0.0,0.0,0.0
14/07/2022,00:21:22,-0.000,0.0,0.0,0.0
14/07/2022,00:22:31,-0.000,0.0,0.0,0.0
14/07/2022,00:23:22,0.000,0.0,0.0,0.0
14/07/2022,00:24:22,0.000,0.0,0.0,0.0
14/07/2022,00:25:22,0.000,0.0,0.0,0.0
14/07/2022,00:26:22,0.000,0.0,0.0,0.0
14/07/2022,00:27:22,-0.000,0.0,0.0,0.0
14/07/2022,00:28:22,0.000,0.0,0.0,0.0
14/07/2022,00:29:23,0.000,0.0,0.0,0.0
14/07/2022,00:30:23,-0.000,0.0,0.0,0.0
14/07/2022,00:31:22,0.001,0.0,0.0,0.0
14/07/2022,00:32:23,0.000,0.0,0.0,0.0
14/07/2022,00:33:23,0.000,0.0,0.0,0.0
14/07/2022,00:34:22,0.000,0.0,0.0,0.0
14/07/2022,00:35:22,0.000,0.0,0.0,0.0
14/07/2022,00:36:22,0.000,0.0,0.0,0.0
14/07/2022,00:37:22,0.000,0.0,0.0,0.0
14/07/2022,00:38:22,0.000,0.0,0.0,0.0
14/07/2022,00:39:22,0.000,0.0,0.0,0.0
14/07/2022,00:40:22,0.000,0.0,0.0,0.0
14/07/2022,00:41:22,0.000,0.0,0.0,0.0
14/07/2022,00:42:22,0.000,0.0,0.0,0.0
14/07/2022,00:43:22,0.000,0.0,0.0,0.0
14/07/2022,00:44:23,0.001,0.0,0.0,0.0
14/07/2022,00:45:22,0.001,0.0,0.0,0.0
14/07/2022,00:46:22,0.000,0.0,0.0,0.0
14/07/2022,00:47:22,0.000,0.0,0.0,0.0
14/07/2022,00:48:22,0.000,0.0,0.0,0.0
14/07/2022,00:49:23,0.000,0.0,0.0,0.0
14/07/2022,00:50:22,0.000,0.0,0.0,0.0
14/07/2022,00:51:31,0.000,0.0,0.0,0.0
14/07/2022,00:52:22,-0.000,0.0,0.0,0.0
14/07/2022,00:53:22,0.000,0.0,0.0,0.0
14/07/2022,00:54:22,0.000,0.0,0.0,0.0
14/07/2022,00:55:22,-0.000,0.0,0.0,0.0
14/07/2022,00:56:31,0.000,0.0,0.0,0.0
14/07/2022,00:57:22,0.001,0.0,0.0,0.0
14/07/2022,00:58:22,0.000,0.0,0.0,0.0
14/07/2022,00:59:30,0.001,0.0,0.0,0.0
14/07/2022,01:01:23,-0.000,0.0,0.0,0.0
14/07/2022,01:02:22,0.001,0.0,0.0,0.0
14/07/2022,01:03:22,0.000,0.0,0.0,0.0
14/07/2022,01:04:22,0.000,0.0,0.0,0.0
14/07/2022,01:05:30,-0.000,0.0,0.0,0.0
14/07/2022,01:06:22,0.000,0.0,0.0,0.0
14/07/2022,01:07:22,0.000,0.0,0.0,0.0
14/07/2022,01:08:22,0.001,0.0,0.0,0.0
14/07/2022,01:09:22,0.000,0.0,0.0,0.0
14/07/2022,01:10:30,-0.000,0.0,0.0,0.0
14/07/2022,01:11:22,0.000,0.0,0.0,0.0
14/07/2022,01:12:22,0.001,0.0,0.0,0.0
14/07/2022,01:13:22,0.000,0.0,0.0,0.0
14/07/2022,01:14:22,-0.000,0.0,0.0,0.0
14/07/2022,01:15:22,0.001,0.0,0.0,0.0
14/07/2022,01:16:22,0.001,0.0,0.0,0.0
14/07/2022,01:17:23,0.000,0.0,0.0,0.0
14/07/2022,01:18:22,0.000,0.0,0.0,0.0
14/07/2022,01:19:22,0.000,0.0,0.0,0.0
14/07/2022,01:20:22,0.000,0.0,0.0,0.0
14/07/2022,01:21:22,-0.000,0.0,0.0,0.0
14/07/2022,01:22:22,0.001,0.0,0.0,0.0
14/07/2022,01:23:23,0.000,0.0,0.0,0.0
14/07/2022,01:24:22,-0.000,0.0,0.0,0.0
14/07/2022,01:25:30,0.000,0.0,0.0,0.0
14/07/2022,01:26:22,0.000,0.0,0.0,0.0
14/07/2022,01:27:22,0.000,0.0,0.0,0.0
14/07/2022,01:28:30,0.001,0.0,0.0,0.0
14/07/2022,01:29:23,0.000,0.0,0.0,0.0
14/07/2022,01:30:23,0.000,0.0,0.0,0.0
14/07/2022,01:31:31,0.000,0.0,0.0,0.0
14/07/2022,01:33:23,0.000,0.0,0.0,0.0
14/07/2022,01:34:30,0.000,0.0,0.0,0.0
14/07/2022,01:35:23,0.000,0.0,0.0,0.0
14/07/2022,01:36:31,0.001,0.0,0.0,0.0
14/07/2022,01:37:22,0.001,0.0,0.0,0.0
14/07/2022,01:38:23,-0.000,0.0,0.0,0.0
14/07/2022,01:39:30,0.000,0.0,0.0,0.0
14/07/2022,01:40:22,0.002,0.0,0.0,0.0
14/07/2022,01:41:23,0.001,0.0,0.0,0.0
14/07/2022,01:42:22,0.000,0.0,0.0,0.0
14/07/2022,01:43:25,0.000,0.0,0.0,0.0
14/07/2022,01:44:22,0.000,0.0,0.0,0.0
14/07/2022,01:45:22,0.000,0.0,0.0,0.0
14/07/2022,01:46:22,0.001,0.0,0.0,0.0
14/07/2022,01:47:22,0.001,0.0,0.0,0.0
14/07/2022,01:48:22,-0.000,0.0,0.0,0.0
14/07/2022,01:49:22,0.001,0.0,0.0,0.0
14/07/2022,01:50:22,0.000,0.0,0.0,0.0
14/07/2022,01:51:22,0.000,0.0,0.0,0.0
14/07/2022,01:52:22,-0.000,0.0,0.0,0.0
14/07/2022,01:53:22,0.002,0.0,0.0,0.0
14/07/2022,01:54:31,0.001,0.0,0.0,0.0
14/07/2022,01:55:22,0.000,0.0,0.0,0.0
14/07/2022,01:56:22,0.001,0.0,0.0,0.0
14/07/2022,01:57:31,0.001,0.0,0.0,0.0
14/07/2022,01:58:22,0.000,0.0,0.0,0.0
14/07/2022,01:59:22,0.000,0.0,0.0,0.0
14/07/2022,02:00:22,-0.000,0.0,0.0,0.0
14/07/2022,02:01:22,0.001,0.0,0.0,0.0
14/07/2022,02:02:23,0.001,0.0,0.0,0.0
14/07/2022,02:03:22,0.002,0.0,0.0,0.0
14/07/2022,02:04:10,0.001,0.0,0.0,0.0
14/07/2022,02:05:23,0.001,0.0,0.0,0.0
14/07/2022,02:06:23,0.000,0.0,0.0,0.0
14/07/2022,02:07:22,0.001,0.0,0.0,0.0
14/07/2022,02:08:22,0.000,0.0,0.0,0.0
14/07/2022,02:09:23,0.000,0.0,0.0,0.0
14/07/2022,02:10:22,0.001,0.0,0.0,0.0
14/07/2022,02:11:30,0.000,0.0,0.0,0.0
14/07/2022,02:12:22,0.001,0.0,0.0,0.0
14/07/2022,02:13:22,0.000,0.0,0.0,0.0
14/07/2022,02:14:31,0.000,0.0,0.0,0.0
14/07/2022,02:15:22,0.000,0.0,0.0,0.0
14/07/2022,02:16:22,-0.000,0.0,0.0,0.0
14/07/2022,02:17:23,0.001,0.0,0.0,0.0
14/07/2022,02:18:22,0.001,0.0,0.0,0.0
14/07/2022,02:19:22,0.001,0.0,0.0,0.0
14/07/2022,02:20:22,-0.000,0.0,0.0,0.0
14/07/2022,02:21:22,0.001,0.0,0.0,0.0
14/07/2022,02:22:22,-0.000,0.0,0.0,0.0
14/07/2022,02:23:22,0.001,0.0,0.0,0.0
14/07/2022,02:24:23,0.001,0.0,0.0,0.0
14/07/2022,02:25:22,0.000,0.0,0.0,0.0
14/07/2022,02:26:23,0.001,0.0,0.0,0.0
14/07/2022,02:27:22,-0.000,0.0,0.0,0.0
14/07/2022,02:28:23,0.001,0.0,0.0,0.0
14/07/2022,02:29:22,0.001,0.0,0.0,0.0
14/07/2022,02:30:39,-0.000,0.0,0.0,0.0
14/07/2022,02:32:24,0.001,0.0,0.0,0.0
14/07/2022,02:33:23,0.002,0.0,0.0,0.0
14/07/2022,02:34:23,0.001,0.0,0.0,0.0
14/07/2022,02:35:23,0.001,0.0,0.0,0.0
14/07/2022,02:36:24,0.000,0.0,0.0,0.0
14/07/2022,02:37:23,0.001,0.0,0.0,0.0
14/07/2022,02:38:22,-0.000,0.0,0.0,0.0
14/07/2022,02:39:23,0.001,0.0,0.0,0.0
14/07/2022,02:40:30,0.002,0.0,0.0,0.0
14/07/2022,02:41:22,0.001,0.0,0.0,0.0
14/07/2022,02:42:31,0.001,0.0,0.0,0.0
14/07/2022,02:43:22,0.001,0.0,0.0,0.0
14/07/2022,02:44:23,0.000,0.0,0.0,0.0
14/07/2022,02:45:22,0.001,0.0,0.0,0.0
14/07/2022,02:46:22,0.001,0.0,0.0,0.0
14/07/2022,02:47:23,0.001,0.0,0.0,0.0
14/07/2022,02:48:22,0.000,0.0,0.0,0.0
14/07/2022,02:49:36,0.001,0.0,0.0,0.0
14/07/2022,02:51:23,0.001,0.0,0.0,0.0
14/07/2022,02:52:22,0.001,0.0,0.0,0.0
14/07/2022,02:53:22,0.001,0.0,0.0,0.0
14/07/2022,02:54:23,0.001,0.0,0.0,0.0
14/07/2022,02:55:23,0.000,0.0,0.0,0.0
14/07/2022,02:56:22,0.001,0.0,0.0,0.0
14/07/2022,02:57:22,0.002,0.0,0.0,0.0
14/07/2022,02:58:22,0.000,0.0,0.0,0.0
14/07/2022,02:59:23,0.001,0.0,0.0,0.0
14/07/2022,03:00:22,0.002,0.0,0.0,0.0
14/07/2022,03:01:30,0.001,0.0,0.0,0.0
14/07/2022,03:02:23,0.001,0.0,0.0,0.0
14/07/2022,03:03:23,-0.000,0.0,0.0,0.0
14/07/2022,03:04:23,0.001,0.0,0.0,0.0
14/07/2022,03:05:22,0.001,0.0,0.0,0.0
14/07/2022,03:06:22,-0.000,0.0,0.0,0.0
14/07/2022,03:07:23,0.002,0.0,0.0,0.0
14/07/2022,03:08:22,0.001,0.0,0.0,0.0
14/07/2022,03:09:22,0.001,0.0,0.0,0.0
14/07/2022,03:10:23,0.001,0.0,0.0,0.0
14/07/2022,03:11:23,0.001,0.0,0.0,0.0
14/07/2022,03:12:31,0.001,0.0,0.0,0.0
14/07/2022,03:13:23,0.001,0.0,0.0,0.0
14/07/2022,03:14:22,0.001,0.0,0.0,0.0
14/07/2022,03:15:23,0.001,0.0,0.0,0.0
14/07/2022,03:16:23,0.002,0.0,0.0,0.0
14/07/2022,03:17:22,0.001,0.0,0.0,0.0
14/07/2022,03:18:23,0.001,0.0,0.0,0.0
14/07/2022,03:19:22,0.002,0.0,0.0,0.0
14/07/2022,03:20:22,0.001,0.0,0.0,0.0
14/07/2022,03:21:23,0.001,0.0,0.0,0.0
14/07/2022,03:22:23,0.001,0.0,0.0,0.0
14/07/2022,03:23:23,0.001,0.0,0.0,0.0
14/07/2022,03:24:23,0.002,0.0,0.0,0.0
14/07/2022,03:25:22,0.001,0.0,0.0,0.0
14/07/2022,03:26:22,0.001,0.0,0.0,0.0
14/07/2022,03:27:22,0.001,0.0,0.0,0.0
14/07/2022,03:28:23,0.001,0.0,0.0,0.0
14/07/2022,03:29:22,0.001,0.0,0.0,0.0
14/07/2022,03:30:31,0.001,0.0,0.0,0.0
14/07/2022,03:31:23,0.001,0.0,0.0,0.0
14/07/2022,03:32:23,0.001,0.0,0.0,0.0
14/07/2022,03:33:30,0.000,0.0,0.0,0.0
14/07/2022,03:34:39,0.001,0.0,0.0,0.0
14/07/2022,03:36:23,0.001,0.0,0.0,0.0
14/07/2022,03:37:23,0.001,0.0,0.0,0.0
14/07/2022,03:38:31,0.001,0.0,0.0,0.0
14/07/2022,03:39:22,0.002,0.0,0.0,0.0
14/07/2022,03:40:22,0.001,0.0,0.0,0.0
14/07/2022,03:41:22,0.000,0.0,0.0,0.0
14/07/2022,03:42:23,0.001,0.0,0.0,0.0
14/07/2022,03:43:23,0.001,0.0,0.0,0.0
14/07/2022,03:44:23,0.001,0.0,0.0,0.0
14/07/2022,03:45:23,0.001,0.0,0.0,0.0
14/07/2022,03:46:23,0.002,0.0,0.0,0.0
14/07/2022,03:47:24,0.001,0.0,0.0,0.0
14/07/2022,03:48:23,0.002,0.0,0.0,0.0
14/07/2022,03:49:23,0.000,0.0,0.0,0.0
14/07/2022,03:50:22,0.002,0.0,0.0,0.0
14/07/2022,03:51:23,0.000,0.0,0.0,0.0
14/07/2022,03:52:22,0.000,0.0,0.0,0.0
14/07/2022,03:53:23,0.001,0.0,0.0,0.0
14/07/2022,03:54:22,0.001,0.0,0.0,0.0
14/07/2022,03:55:22,0.001,0.0,0.0,0.0
14/07/2022,03:56:22,0.002,0.0,0.0,0.0
14/07/2022,03:57:23,0.002,0.0,0.0,0.0
14/07/2022,03:58:23,0.001,0.0,0.0,0.0
14/07/2022,03:59:22,0.000,0.0,0.0,0.0
14/07/2022,04:00:22,0.002,0.0,0.0,0.0
14/07/2022,04:01:23,0.001,0.0,0.0,0.0
14/07/2022,04:02:30,0.001,0.0,0.0,0.0
14/07/2022,04:03:22,0.003,0.0,0.0,0.0
14/07/2022,04:04:22,0.001,0.0,0.0,0.0
14/07/2022,04:05:31,0.002,0.0,0.0,0.0
14/07/2022,04:06:22,0.002,0.0,0.0,0.0
14/07/2022,04:07:23,0.002,0.0,0.0,0.0
14/07/2022,04:08:22,0.002,0.0,0.0,0.0
14/07/2022,04:09:22,0.003,0.0,0.0,0.0
14/07/2022,04:10:22,0.002,0.0,0.0,0.0
14/07/2022,04:11:23,0.002,0.0,0.0,0.0
14/07/2022,04:12:23,0.003,0.0,0.0,0.0
14/07/2022,04:13:22,0.002,0.0,0.0,0.0
14/07/2022,04:14:22,0.003,0.0,0.0,0.0
14/07/2022,04:15:23,0.004,0.0,0.0,0.0
14/07/2022,04:16:23,0.004,0.0,0.0,0.0
14/07/2022,04:17:31,0.004,0.0,0.0,0.0
14/07/2022,04:18:22,0.004,0.0,0.0,0.0
14/07/2022,04:19:23,0.004,0.0,0.0,0.0
14/07/2022,04:20:22,0.004,0.0,0.0,0.0
14/07/2022,04:21:23,0.004,0.0,0.0,0.0
14/07/2022,04:22:23,0.004,0.0,0.0,0.0
14/07/2022,04:23:23,0.005,0.0,0.0,0.0
14/07/2022,04:24:22,0.005,0.0,0.0,0.0
14/07/2022,04:25:23,0.006,0.0,0.0,0.0
14/07/2022,04:26:29,0.006,0.0,0.0,0.0
14/07/2022,04:27:23,0.005,0.0,0.0,0.0
14/07/2022,04:28:23,0.006,0.0,0.0,0.0
14/07/2022,04:29:25,0.007,0.0,0.0,0.0
14/07/2022,04:30:23,0.006,0.0,0.0,0.0
14/07/2022,04:31:23,0.006,0.0,0.0,0.0
14/07/2022,04:32:23,0.007,0.0,0.0,0.0
14/07/2022,04:33:22,0.008,0.0,0.0,0.0
14/07/2022,04:34:23,0.007,0.0,0.0,0.0
14/07/2022,04:35:22,0.007,0.0,0.001,0.001
14/07/2022,04:36:22,0.007,0.0,0.001,0.0
14/07/2022,04:37:22,0.008,0.0,0.001,0.0
14/07/2022,04:38:24,0.008,0.0,0.001,0.0
14/07/2022,04:39:23,0.008,0.0,0.001,0.0
14/07/2022,04:40:31,0.009,0.0,0.001,0.0
14/07/2022,04:42:23,0.010,0.0,0.002,0.001
14/07/2022,04:43:23,0.010,0.0,0.002,0.0
14/07/2022,04:44:23,0.010,0.0,0.002,0.0
14/07/2022,04:45:24,0.010,0.0,0.002,0.0
14/07/2022,04:46:23,0.011,0.0,0.002,0.0
14/07/2022,04:47:23,0.012,0.0,0.002,0.0
14/07/2022,04:48:22,0.012,0.0,0.003,0.001
14/07/2022,04:49:23,0.014,0.0,0.003,0.0
14/07/2022,04:50:23,0.014,0.0,0.003,0.0
14/07/2022,04:51:22,0.013,0.0,0.003,0.0
14/07/2022,04:52:23,0.014,0.0,0.003,0.0
14/07/2022,04:53:22,0.014,0.0,0.004,0.001
14/07/2022,04:54:23,0.015,0.0,0.004,0.0
14/07/2022,04:55:22,0.016,0.0,0.004,0.0
14/07/2022,04:56:22,0.016,0.0,0.004,0.0
14/07/2022,04:57:22,0.017,0.0,0.005,0.001
14/07/2022,04:58:31,0.017,0.0,0.005,0.0
14/07/2022,04:59:23,0.017,0.0,0.005,0.0
14/07/2022,05:00:23,0.018,0.0,0.006,0.001
14/07/2022,05:01:23,0.020,0.0,0.006,0.0
14/07/2022,05:02:23,0.020,0.0,0.006,0.0
14/07/2022,05:03:23,0.020,0.0,0.007,0.001
14/07/2022,05:04:31,0.021,0.0,0.007,0.0
14/07/2022,05:05:23,0.022,0.0,0.007,0.0
14/07/2022,05:06:24,0.022,0.0,0.008,0.001
14/07/2022,05:07:22,0.023,0.0,0.008,0.0
14/07/2022,05:08:14,0.024,0.0,0.008,0.0
14/07/2022,05:09:24,0.024,0.0,0.009,0.001
14/07/2022,05:10:23,0.025,0.0,0.009,0.0
14/07/2022,05:11:23,0.026,0.0,0.01,0.001
14/07/2022,05:12:36,0.027,0.0,0.01,0.0
14/07/2022,05:14:24,0.029,0.0,0.011,0.001
14/07/2022,05:15:23,0.029,0.0,0.011,0.0
14/07/2022,05:16:22,0.030,0.0,0.012,0.001
14/07/2022,05:17:23,0.030,0.0,0.012,0.0
14/07/2022,05:18:24,0.031,0.0,0.013,0.001
14/07/2022,05:19:31,0.033,0.0,0.014,0.001
14/07/2022,05:20:22,0.033,0.0,0.014,0.0
14/07/2022,05:21:23,0.034,0.0,0.015,0.001
14/07/2022,05:22:31,0.035,0.0,0.015,0.0
14/07/2022,05:23:23,0.036,0.0,0.016,0.001
14/07/2022,05:24:22,0.037,0.0,0.016,0.0
14/07/2022,05:25:23,0.038,0.0,0.017,0.001
14/07/2022,05:26:23,0.039,0.0,0.018,0.001
14/07/2022,05:27:22,0.040,0.0,0.018,0.0
14/07/2022,05:28:23,0.041,0.0,0.019,0.001
14/07/2022,05:29:23,0.042,0.0,0.02,0.001
14/07/2022,05:30:23,0.044,0.0,0.02,0.0
14/07/2022,05:31:23,0.045,0.0,0.021,0.001
14/07/2022,05:32:22,0.045,0.0,0.022,0.001
14/07/2022,05:33:10,0.047,0.0,0.023,0.001
14/07/2022,05:34:25,0.048,0.0,0.024,0.001
14/07/2022,05:35:23,0.049,0.0,0.024,0.0
14/07/2022,05:36:23,0.051,0.0,0.025,0.001
14/07/2022,05:37:22,0.053,0.0,0.026,0.001
14/07/2022,05:38:22,0.053,0.0,0.027,0.001
14/07/2022,05:39:23,0.054,0.0,0.028,0.001
14/07/2022,05:40:31,0.042,0.0,0.029,0.001
14/07/2022,05:41:22,0.057,0.0,0.03,0.001
14/07/2022,05:42:23,0.058,0.0,0.03,0.0
14/07/2022,05:43:39,0.061,0.0,0.032,0.002
14/07/2022,05:45:23,0.063,0.0,0.034,0.002
14/07/2022,05:46:23,0.064,0.0,0.035,0.001
14/07/2022,05:47:23,0.066,0.0,0.036,0.001
14/07/2022,05:48:23,0.067,0.0,0.037,0.001
14/07/2022,05:49:23,0.069,0.0,0.038,0.001
14/07/2022,05:50:22,0.071,0.0,0.039,0.001
14/07/2022,05:51:23,0.072,0.0,0.04,0.001
14/07/2022,05:52:23,0.074,0.0,0.042,0.002
14/07/2022,05:53:23,0.076,0.0,0.043,0.001
14/07/2022,05:54:22,0.077,0.0,0.044,0.001
14/07/2022,05:55:23,0.079,0.0,0.045,0.001
14/07/2022,05:56:23,0.081,0.0,0.047,0.002
14/07/2022,05:57:23,0.083,0.0,0.048,0.001
14/07/2022,05:58:23,0.084,0.0,0.049,0.001
14/07/2022,05:59:23,0.086,0.0,0.051,0.002
14/07/2022,06:00:22,0.086,0.0,0.052,0.001
14/07/2022,06:01:23,0.087,0.0,0.054,0.002
14/07/2022,06:02:22,0.090,0.0,0.055,0.001
14/07/2022,06:03:23,0.092,0.0,0.057,0.002
14/07/2022,06:04:23,0.096,0.0,0.058,0.001
14/07/2022,06:05:23,0.099,0.0,0.06,0.002
14/07/2022,06:06:22,0.101,0.0,0.062,0.002
14/07/2022,06:07:31,0.104,0.0,0.064,0.002
14/07/2022,06:08:23,0.105,0.0,0.065,0.001
14/07/2022,06:09:23,0.108,0.0,0.067,0.002
14/07/2022,06:10:23,0.110,0.0,0.069,0.002
14/07/2022,06:11:23,0.112,0.0,0.07,0.001
14/07/2022,06:12:23,0.115,0.0,0.072,0.002
14/07/2022,06:13:22,0.117,0.0,0.074,0.002
14/07/2022,06:14:23,0.120,0.0,0.076,0.002
14/07/2022,06:15:22,0.122,0.0,0.078,0.002
14/07/2022,06:16:23,0.124,0.0,0.08,0.002
14/07/2022,06:17:23,0.126,0.0,0.082,0.002
14/07/2022,06:18:23,0.129,0.0,0.085,0.003
14/07/2022,06:19:23,0.132,0.0,0.087,0.002
14/07/2022,06:20:23,0.135,0.0,0.089,0.002
14/07/2022,06:21:23,0.137,0.0,0.091,0.002
14/07/2022,06:22:31,0.140,0.0,0.094,0.003
14/07/2022,06:23:23,0.143,0.0,0.096,0.002
14/07/2022,06:24:22,0.147,0.0,0.098,0.002
14/07/2022,06:25:23,0.147,0.0,0.101,0.003
14/07/2022,06:26:23,0.151,0.0,0.103,0.002
14/07/2022,06:27:26,0.154,0.0,0.106,0.003
14/07/2022,06:28:31,0.158,0.0,0.109,0.003
14/07/2022,06:29:23,0.160,0.0,0.111,0.002
14/07/2022,06:30:25,0.164,0.0,0.114,0.003
14/07/2022,06:31:09,0.166,0.0,0.116,0.002
14/07/2022,06:32:23,0.169,0.0,0.119,0.003
14/07/2022,06:33:31,0.172,0.0,0.122,0.003
14/07/2022,06:34:23,0.175,0.0,0.125,0.003
14/07/2022,06:35:23,0.178,0.0,0.128,0.003
14/07/2022,06:36:23,0.182,0.0,0.131,0.003
14/07/2022,06:37:23,0.186,0.0,0.134,0.003
14/07/2022,06:38:22,0.189,0.0,0.137,0.003
14/07/2022,06:39:23,0.193,0.0,0.14,0.003
14/07/2022,06:40:22,0.196,0.0,0.144,0.004
14/07/2022,06:41:24,0.199,0.0,0.147,0.003
14/07/2022,06:42:23,0.203,0.0,0.15,0.003
14/07/2022,06:43:23,0.206,0.0,0.154,0.004
14/07/2022,06:44:23,0.211,0.0,0.157,0.003
14/07/2022,06:45:23,0.215,0.0,0.161,0.004
14/07/2022,06:46:31,0.219,1.0,0.165,0.004
14/07/2022,06:47:23,0.222,1.0,0.168,0.003
14/07/2022,06:48:23,0.226,1.0,0.172,0.004
14/07/2022,06:49:23,0.230,1.0,0.176,0.004
14/07/2022,06:50:23,0.234,1.0,0.179,0.003
14/07/2022,06:51:23,0.238,1.0,0.183,0.004
14/07/2022,06:52:23,0.243,1.0,0.187,0.004
14/07/2022,06:53:23,0.246,1.0,0.191,0.004
14/07/2022,06:54:22,0.250,1.0,0.195,0.004
14/07/2022,06:55:23,0.254,1.0,0.2,0.005
14/07/2022,06:56:23,0.259,1.0,0.204,0.004
14/07/2022,06:57:23,0.263,1.0,0.208,0.004
14/07/2022,06:58:26,0.267,1.0,0.213,0.005
14/07/2022,06:59:22,0.271,1.0,0.217,0.004
14/07/2022,07:00:23,0.274,1.0,0.222,0.005
14/07/2022,07:01:23,0.278,1.0,0.226,0.004
14/07/2022,07:02:23,0.281,1.0,0.231,0.005
14/07/2022,07:03:23,0.287,1.0,0.236,0.005
14/07/2022,07:04:23,0.292,1.0,0.24,0.004
14/07/2022,07:05:22,0.298,1.0,0.245,0.005
14/07/2022,07:06:22,0.301,1.0,0.25,0.005
14/07/2022,07:07:23,0.305,1.0,0.256,0.006
14/07/2022,07:08:22,0.311,1.0,0.261,0.005
14/07/2022,07:09:31,0.315,1.0,0.266,0.005
14/07/2022,07:10:23,0.320,1.0,0.271,0.005
14/07/2022,07:11:23,0.324,1.0,0.276,0.005
14/07/2022,07:12:23,0.328,1.0,0.282,0.006
14/07/2022,07:13:23,0.334,1.0,0.287,0.005
14/07/2022,07:14:23,0.338,1.0,0.293,0.006
14/07/2022,07:15:23,0.343,1.0,0.299,0.006
14/07/2022,07:16:23,0.348,1.0,0.304,0.005
14/07/2022,07:17:23,0.354,1.0,0.31,0.006
14/07/2022,07:18:23,0.359,1.0,0.316,0.006
14/07/2022,07:19:23,0.365,1.0,0.322,0.006
14/07/2022,07:20:22,0.369,1.0,0.328,0.006
14/07/2022,07:21:23,0.375,1.0,0.335,0.007
14/07/2022,07:22:23,0.380,1.0,0.341,0.006
14/07/2022,07:23:22,0.385,1.0,0.347,0.006
14/07/2022,07:24:23,0.393,1.0,0.354,0.007
14/07/2022,07:25:23,0.397,1.0,0.36,0.006
14/07/2022,07:26:23,0.403,1.0,0.367,0.007
14/07/2022,07:27:23,0.408,1.0,0.374,0.007
14/07/2022,07:28:23,0.415,1.0,0.381,0.007
14/07/2022,07:29:23,0.419,1.0,0.387,0.006
14/07/2022,07:30:22,0.424,1.0,0.394,0.007
14/07/2022,07:31:31,0.431,1.0,0.403,0.009
14/07/2022,07:33:23,0.443,1.0,0.416,0.013
14/07/2022,07:34:23,0.448,1.0,0.424,0.008
14/07/2022,07:35:23,0.454,1.0,0.431,0.007
14/07/2022,07:36:31,0.460,1.0,0.44,0.009
14/07/2022,07:37:23,0.466,1.0,0.446,0.006
14/07/2022,07:38:23,0.472,1.0,0.454,0.008
14/07/2022,07:39:23,0.478,1.0,0.462,0.008
14/07/2022,07:40:37,0.487,1.0,0.472,0.01
14/07/2022,07:42:23,0.498,1.0,0.487,0.015
14/07/2022,07:43:23,0.503,1.0,0.495,0.008
14/07/2022,07:44:23,0.510,1.0,0.503,0.008
14/07/2022,07:45:23,0.515,1.0,0.512,0.009
14/07/2022,07:46:23,0.521,1.0,0.52,0.008
14/07/2022,07:47:23,0.530,1.0,0.529,0.009
14/07/2022,07:48:23,0.534,1.0,0.538,0.009
14/07/2022,07:49:23,0.542,1.0,0.547,0.009
14/07/2022,07:50:23,0.549,1.0,0.556,0.009
14/07/2022,07:51:31,0.556,1.0,0.567,0.011
14/07/2022,07:52:23,0.562,1.0,0.575,0.008
14/07/2022,07:53:23,0.569,1.0,0.584,0.009
14/07/2022,07:54:32,0.577,1.0,0.595,0.011
14/07/2022,07:55:22,0.583,1.0,0.603,0.008
14/07/2022,07:56:23,0.591,1.0,0.613,0.01
14/07/2022,07:57:23,0.597,1.0,0.623,0.01
14/07/2022,07:58:23,0.603,1.0,0.633,0.01
14/07/2022,07:59:23,0.610,1.0,0.643,0.01
14/07/2022,08:00:31,0.619,1.0,0.655,0.012
14/07/2022,08:01:23,0.624,1.0,0.664,0.009
14/07/2022,08:02:23,0.629,1.0,0.674,0.01
14/07/2022,08:03:23,0.639,1.0,0.685,0.011
14/07/2022,08:04:24,0.646,1.0,0.696,0.011
14/07/2022,08:05:23,0.654,2.0,0.706,0.01
14/07/2022,08:06:23,0.659,2.0,0.717,0.011
14/07/2022,08:07:24,0.665,2.0,0.728,0.011
14/07/2022,08:08:23,0.671,2.0,0.739,0.011
14/07/2022,08:09:23,0.679,2.0,0.751,0.012
14/07/2022,08:10:23,0.688,2.0,0.762,0.011
14/07/2022,08:11:23,0.694,2.0,0.774,0.012
14/07/2022,08:12:23,0.701,2.0,0.785,0.011
14/07/2022,08:13:23,0.709,2.0,0.797,0.012
14/07/2022,08:14:23,0.719,2.0,0.809,0.012
14/07/2022,08:15:23,0.726,2.0,0.821,0.012
14/07/2022,08:16:23,0.733,2.0,0.833,0.012
14/07/2022,08:17:23,0.742,2.0,0.845,0.012
14/07/2022,08:18:23,0.748,2.0,0.858,0.013
14/07/2022,08:19:23,0.755,2.0,0.87,0.012
14/07/2022,08:20:23,0.767,2.0,0.883,0.013
14/07/2022,08:21:23,0.772,2.0,0.896,0.013
14/07/2022,08:22:23,0.784,2.0,0.909,0.013
14/07/2022,08:23:31,0.796,2.0,0.924,0.015
14/07/2022,08:24:23,0.805,2.0,0.935,0.011
14/07/2022,08:25:23,0.815,2.0,0.949,0.014
14/07/2022,08:26:31,0.827,2.0,0.964,0.015
14/07/2022,08:27:23,0.834,2.0,0.976,0.012
14/07/2022,08:28:23,0.840,2.0,0.99,0.014
14/07/2022,08:29:32,0.847,2.0,1.006,0.016
14/07/2022,08:30:23,0.850,2.0,1.019,0.013
14/07/2022,08:31:23,0.837,2.0,1.033,0.014
14/07/2022,08:32:23,0.782,2.0,1.046,0.013
14/07/2022,08:33:24,0.806,2.0,1.06,0.014
14/07/2022,08:34:23,0.867,2.0,1.074,0.014
14/07/2022,08:35:23,0.885,2.0,1.088,0.014
14/07/2022,08:36:23,0.890,2.0,1.103,0.015
14/07/2022,08:37:23,0.904,2.0,1.118,0.015
14/07/2022,08:38:23,0.908,2.0,1.133,0.015
14/07/2022,08:39:39,0.917,2.0,1.153,0.02
14/07/2022,08:41:24,0.936,2.0,1.18,0.027
14/07/2022,08:42:23,0.942,2.0,1.195,0.015
14/07/2022,08:43:23,0.949,2.0,1.211,0.016
14/07/2022,08:44:23,0.963,2.0,1.227,0.016
14/07/2022,08:45:23,0.974,2.0,1.243,0.016
14/07/2022,08:46:23,0.983,2.0,1.259,0.016
14/07/2022,08:47:44,0.995,2.0,1.281,0.022
14/07/2022,08:49:24,1.006,2.0,1.309,0.028
14/07/2022,08:50:32,1.013,2.0,1.328,0.019
14/07/2022,08:51:23,1.030,2.0,1.342,0.014
14/07/2022,08:52:32,1.041,2.0,1.363,0.021
14/07/2022,08:53:23,1.047,2.0,1.377,0.014
14/07/2022,08:54:23,1.060,2.0,1.395,0.018
14/07/2022,08:55:23,1.071,2.0,1.413,0.018
14/07/2022,08:56:23,1.082,2.0,1.43,0.017
14/07/2022,08:57:23,1.093,3.0,1.449,0.019
14/07/2022,08:58:31,1.106,3.0,1.47,0.021
14/07/2022,08:59:23,1.116,3.0,1.485,0.015
14/07/2022,09:00:23,1.129,3.0,1.504,0.019
14/07/2022,09:01:31,1.131,3.0,1.526,0.022
14/07/2022,09:02:23,1.111,3.0,1.542,0.016
14/07/2022,09:03:23,1.113,3.0,1.56,0.018
14/07/2022,09:04:23,1.097,3.0,1.58,0.02
14/07/2022,09:05:23,1.054,2.0,1.597,0.017
14/07/2022,09:06:23,1.112,3.0,1.616,0.019
14/07/2022,09:07:23,1.160,3.0,1.634,0.018
14/07/2022,09:08:23,1.186,3.0,1.654,0.02
14/07/2022,09:09:23,1.145,3.0,1.673,0.019
14/07/2022,09:10:23,1.156,3.0,1.694,0.021
14/07/2022,09:11:23,1.150,3.0,1.712,0.018
14/07/2022,09:12:23,1.130,3.0,1.731,0.019
14/07/2022,09:13:23,1.121,3.0,1.75,0.019
14/07/2022,09:14:23,1.245,3.0,1.768,0.018
14/07/2022,09:15:23,1.268,3.0,1.79,0.022
14/07/2022,09:16:23,1.259,3.0,1.81,0.02
14/07/2022,09:17:23,1.274,3.0,1.832,0.022
14/07/2022,09:18:25,1.263,3.0,1.853,0.021
14/07/2022,09:19:32,1.224,3.0,1.877,0.024
14/07/2022,09:20:23,1.299,3.0,1.894,0.017
14/07/2022,09:21:23,1.276,3.0,1.915,0.021
14/07/2022,09:22:23,1.228,3.0,1.936,0.021
14/07/2022,09:23:23,1.257,3.0,1.956,0.02
14/07/2022,09:24:32,1.294,3.0,1.98,0.024
14/07/2022,09:25:23,1.345,3.0,2.0,0.02
14/07/2022,09:26:23,1.325,3.0,2.021,0.021
14/07/2022,09:27:23,1.326,3.0,2.044,0.023
14/07/2022,09:28:23,1.337,3.0,2.065,0.021
14/07/2022,09:29:23,1.410,3.0,2.088,0.023
14/07/2022,09:30:23,1.342,3.0,2.112,0.024
14/07/2022,09:31:23,1.343,3.0,2.134,0.022
14/07/2022,09:32:24,1.373,3.0,2.157,0.023
14/07/2022,09:33:24,1.393,3.0,2.18,0.023
14/07/2022,09:34:23,1.396,3.0,2.203,0.023
14/07/2022,09:35:23,1.418,3.0,2.227,0.024
14/07/2022,09:36:23,1.479,3.0,2.25,0.023
14/07/2022,09:37:23,1.300,3.0,2.274,0.024
14/07/2022,09:38:23,1.237,3.0,2.296,0.022
14/07/2022,09:39:23,1.251,3.0,2.316,0.02
14/07/2022,09:40:23,0.859,2.0,2.332,0.016
14/07/2022,09:41:23,0.803,2.0,2.347,0.015
14/07/2022,09:42:23,0.894,2.0,2.36,0.013
14/07/2022,09:43:23,0.968,2.0,2.376,0.016
14/07/2022,09:44:23,1.065,2.0,2.394,0.018
14/07/2022,09:45:31,1.285,3.0,2.417,0.023
14/07/2022,09:46:23,1.256,3.0,2.434,0.017
14/07/2022,09:47:24,1.155,3.0,2.455,0.021
14/07/2022,09:48:31,1.052,2.0,2.477,0.022
14/07/2022,09:49:23,1.298,3.0,2.494,0.017
14/07/2022,09:50:23,1.392,3.0,2.517,0.023
14/07/2022,09:51:24,1.418,3.0,2.54,0.023
14/07/2022,09:52:24,1.111,3.0,2.563,0.023
14/07/2022,09:53:23,1.322,3.0,2.583,0.02
14/07/2022,09:54:31,1.405,3.0,2.608,0.025
14/07/2022,09:55:23,1.414,3.0,2.63,0.022
14/07/2022,09:56:31,1.415,3.0,2.656,0.026
14/07/2022,09:57:24,1.453,3.0,2.677,0.021
14/07/2022,09:58:23,1.350,3.0,2.7,0.023
14/07/2022,09:59:31,1.111,3.0,2.723,0.023
14/07/2022,10:00:23,1.064,2.0,2.739,0.016
14/07/2022,10:01:23,1.073,2.0,2.757,0.018
14/07/2022,10:02:24,1.211,3.0,2.776,0.019
14/07/2022,10:03:23,1.312,3.0,2.796,0.02
14/07/2022,10:04:23,1.126,3.0,2.816,0.02
14/07/2022,10:05:23,1.260,3.0,2.836,0.02
14/07/2022,10:06:31,1.018,2.0,2.857,0.021
14/07/2022,10:08:14,0.999,2.0,2.887,0.03
14/07/2022,10:09:25,1.136,3.0,2.906,0.019
14/07/2022,10:10:23,1.067,2.0,2.924,0.018
14/07/2022,10:11:23,1.239,3.0,2.943,0.019
14/07/2022,10:12:23,1.052,2.0,2.963,0.02
14/07/2022,10:13:23,1.279,3.0,2.981,0.018
14/07/2022,10:14:31,1.337,3.0,3.006,0.025
14/07/2022,10:15:23,1.226,3.0,3.023,0.017
14/07/2022,10:16:23,1.103,3.0,3.043,0.02
14/07/2022,10:17:31,1.376,3.0,3.066,0.023
14/07/2022,10:18:23,1.510,3.0,3.086,0.02